This is the latest recevied weather packets stored in our database for station/object KF0EZB. If no packets are shown the sender has not sent any weather packets the latest 10 day(s).
| Time | Temp. | Humidity | Pressure | Rain* | Wind** | Luminosity | Snow |
|---|---|---|---|---|---|---|---|
| 1777758165 | 22.78° C | 27% | 1018.3 hPa | 0 mm | - | 522 W/m² | - |
| 1777757862 | 22.22° C | 28% | 1018.5 hPa | 0 mm | - | 537 W/m² | - |
| 1777757560 | 21.67° C | 27% | 1018.6 hPa | 0 mm | - | 557 W/m² | - |
| 1777757258 | 22.22° C | 27% | 1018.7 hPa | 0 mm | - | 554 W/m² | - |
| 1777756956 | 21.67° C | 28% | 1018.9 hPa | 0 mm | - | 565 W/m² | - |
| 1777756652 | 21.11° C | 29% | 1018.9 hPa | 0 mm | - | 566 W/m² | - |
| 1777756349 | 21.11° C | 27% | 1018.7 hPa | 0 mm | - | 587 W/m² | - |
| 1777756046 | 22.22° C | 27% | 1018.9 hPa | 0 mm | - | 594 W/m² | - |
| 1777755743 | 22.22° C | 27% | 1019.2 hPa | 0 mm | - | 614 W/m² | - |
| 1777755441 | 21.67° C | 28% | 1019.2 hPa | 0 mm | - | 615 W/m² | - |
| 1777755136 | 21.67° C | 28% | 1019 hPa | 0 mm | - | 614 W/m² | - |
| 1777754834 | 20.56° C | 28% | 1019.3 hPa | 0 mm | - | 624 W/m² | - |
| 1777754531 | 21.67° C | 27% | 1019.5 hPa | 0 mm | - | 642 W/m² | - |
| 1777754229 | 21.11° C | 28% | 1019.4 hPa | 0 mm | - | 645 W/m² | - |
| 1777753927 | 21.11° C | 28% | 1019.7 hPa | 0 mm | - | 636 W/m² | - |
| 1777753620 | 21.11° C | 29% | 1019.8 hPa | 0 mm | - | 654 W/m² | - |
| 1777753319 | 20° C | 30% | 1019.7 hPa | 0 mm | - | 686 W/m² | - |
| 1777753016 | 21.11° C | 30% | 1019.9 hPa | 0 mm | - | 677 W/m² | - |
| 1777752712 | 21.11° C | 30% | 1019.9 hPa | 0 mm | - | 698 W/m² | - |
| 1777752408 | 20.56° C | 29% | 1019.7 hPa | 0 mm | - | 721 W/m² | - |
| 1777752105 | 20.56° C | 31% | 1020 hPa | 0 mm | - | 728 W/m² | - |
| 1777751803 | 20° C | 31% | 1019.9 hPa | 0 mm | - | 684 W/m² | - |
| 1777751499 | 20° C | 29% | 1020 hPa | 0 mm | - | 652 W/m² | - |
| 1777751196 | 20.56° C | 30% | 1019.9 hPa | 0 mm | - | 689 W/m² | - |
| 1777750893 | 21.11° C | 30% | 1019.9 hPa | 0 mm | - | 699 W/m² | - |
* Rain latest hour (hover to see other rain measurements)
** Current wind speed in m/s (hover to see current wind gust speed)